Weather History for KIAB - February, 2014

Change the Weather History Date:

Saturday, February 1, 2014

  Actual Average Record
Temperature  
Mean Temperature 25 °F -  
Max Temperature 28 °F 42 °F 66 °F (2003)
Min Temperature 20 °F 25 °F 3 °F (2011)
Degree Days  
Heating Degree Days 40    
Moisture  
Dew Point 25 °F    
Average Humidity 99    
Maximum Humidity 100    
Minimum Humidity 91    
Precipitation  
Precipitation 0.00 in - - ()
Sea Level Pressure  
Sea Level Pressure 29.98 in    
Wind  
Wind Speed 10 mph (North)    
Max Wind Speed 22 mph    
Max Gust Speed 29 mph    
Visibility 10 miles    
Events Rain    
Averages and records for this station are not official NWS values.
T = Trace of Precipitation, MM = Missing Value Source: NWS Daily Summary

Daily Weather History Graph

Daily Weather History Graph

Search for Another Location

Airport or City:

Trip Planner

Search our weather history database for the weather conditions in past years. The results will help you decide how hot, cold, wet, or windy it might be!

Date:

Astronomy

Feb. 01, 2014 Rise Set
Actual Time 7:32 AM CST 5:53 PM CST
Civil Twilight 7:05 AM CST 6:20 PM CST
Nautical Twilight 6:33 AM CST 6:51 PM CST
Astronomical Twilight 6:03 AM CST 7:22 PM CST
Moon 8:26 AM CST (2/1) 8:25 PM CST (2/1)
Length of Visible Light 11h 15m
Length of Day
10h 20m
Waxing Crescent, 5% of the Moon is Illuminated
Feb 1
Waxing Crescent
Feb 6
First Quarter
Feb 14
Full
Feb 22
Last Quarter
Mar 1
New

Hourly Weather History & Observations

Time (CST) Temp. Windchill Dew Point Humidity Pressure Visibility Wind Dir Wind Speed Gust Speed Precip Events Conditions
12:05 AM 23.0 °F 13.9 °F 23.0 °F 100% 29.84 in 10.0 mi ENE 8.1 mph - N/A   Light Freezing Drizzle
12:23 AM 24.8 °F 15.3 °F 24.8 °F 100% 29.90 in 9.0 mi WNW 9.2 mph - N/A   Ice Pellets
12:38 AM 24.8 °F 15.3 °F 24.8 °F 100% 29.87 in 8.0 mi North 9.2 mph - N/A Rain Light Freezing Rain
12:43 AM 24.8 °F 16.1 °F 24.8 °F 100% 29.83 in 10.0 mi NNE 8.1 mph - N/A Rain Light Freezing Rain
12:48 AM 24.8 °F 16.1 °F 24.8 °F 100% 29.82 in 10.0 mi NE 8.1 mph - N/A Rain Light Freezing Rain
12:55 AM 24.8 °F 14.0 °F 24.8 °F 100% 29.80 in 8.0 mi ENE 11.5 mph - N/A Rain Light Freezing Rain
12:58 AM 24.8 °F 14.0 °F 24.8 °F 100% 29.85 in 8.0 mi ENE 11.5 mph - 0.00 in Rain Light Freezing Rain
1:03 AM 24.8 °F 16.9 °F 24.8 °F 100% 29.79 in 9.0 mi ENE 6.9 mph - N/A Rain Light Freezing Rain
1:13 AM 24.8 °F 16.1 °F 24.8 °F 100% 29.78 in 10.0 mi East 8.1 mph - N/A Rain Light Freezing Rain
1:18 AM 24.8 °F 17.9 °F 24.8 °F 100% 29.79 in 10.0 mi ENE 5.8 mph - N/A Rain Light Freezing Rain
1:23 AM 24.8 °F 19.1 °F 24.8 °F 100% 29.84 in 10.0 mi NNE 4.6 mph - N/A Rain Light Freezing Rain
1:27 AM 24.8 °F 16.9 °F 24.8 °F 100% 29.86 in 10.0 mi NNW 6.9 mph - N/A Rain Light Freezing Rain
1:32 AM 24.8 °F 15.3 °F 24.8 °F 100% 29.88 in 10.0 mi NW 9.2 mph - N/A Rain Light Freezing Rain
1:37 AM 24.8 °F 16.9 °F 24.8 °F 100% 29.86 in 10.0 mi NW 6.9 mph - N/A Rain Light Freezing Rain
1:58 AM 25.2 °F 18.3 °F 25.2 °F 100% 29.92 in 10.0 mi NNW 5.8 mph - 0.00 in Rain Light Freezing Rain
2:58 AM 24.4 °F 15.6 °F 24.4 °F 100% 29.89 in 10.0 mi North 8.1 mph - 0.00 in   Overcast
3:55 AM 23.0 °F 12.4 °F 23.0 °F 100% 29.83 in 10.0 mi North 10.4 mph - N/A   Overcast
3:58 AM 23.9 °F 13.5 °F 23.9 °F 100% 29.90 in 10.0 mi North 10.4 mph - 0.00 in   Overcast
4:34 AM 23.0 °F 12.4 °F 23.0 °F 100% 29.85 in 10.0 mi North 10.4 mph - N/A   Overcast
4:44 AM 23.0 °F 13.9 °F 23.0 °F 100% 29.85 in 10.0 mi North 8.1 mph - N/A   Overcast
4:58 AM 23.4 °F 14.3 °F 23.4 °F 100% 29.93 in 10.0 mi North 8.1 mph - N/A   Overcast
5:18 AM 23.0 °F 14.7 °F 23.0 °F 100% 29.85 in 10.0 mi North 6.9 mph - N/A   Overcast
5:48 AM 23.0 °F 13.1 °F 23.0 °F 100% 29.86 in 10.0 mi North 9.2 mph - N/A   Overcast
5:58 AM 23.0 °F 13.9 °F 23.0 °F 100% 29.92 in 10.0 mi North 8.1 mph - N/A   Overcast
6:58 AM 23.0 °F 13.1 °F 23.0 °F 100% 29.94 in 10.0 mi North 9.2 mph - N/A   Overcast
7:33 AM 23.0 °F 13.9 °F 23.0 °F 100% 29.89 in 10.0 mi North 8.1 mph - N/A   Overcast
7:58 AM 22.3 °F 10.8 °F 22.3 °F 100% 29.98 in 10.0 mi North 11.5 mph - N/A   Overcast
8:18 AM 23.0 °F 11.7 °F 23.0 °F 100% 29.92 in 10.0 mi North 11.5 mph - N/A   Overcast
8:23 AM 23.0 °F 12.4 °F 23.0 °F 100% 29.93 in 10.0 mi NNW 10.4 mph - N/A   Overcast
8:38 AM 23.0 °F 11.7 °F 23.0 °F 100% 29.93 in 10.0 mi North 11.5 mph - N/A   Overcast
8:43 AM 23.0 °F 11.7 °F 23.0 °F 100% 29.93 in 10.0 mi North 11.5 mph - N/A   Overcast
8:58 AM 22.8 °F 12.2 °F 22.8 °F 100% 30.00 in 10.0 mi North 10.4 mph - N/A   Overcast
9:08 AM 23.0 °F 11.1 °F 23.0 °F 100% 29.94 in 10.0 mi North 12.7 mph - N/A   Overcast
9:13 AM 23.0 °F 13.1 °F 23.0 °F 100% 29.94 in 10.0 mi North 9.2 mph - N/A   Overcast
9:43 AM 23.0 °F 11.1 °F 23.0 °F 100% 29.96 in 10.0 mi North 12.7 mph - N/A   Overcast
9:58 AM 23.5 °F 11.3 °F 23.5 °F 100% 30.04 in 10.0 mi NNW 13.8 mph - N/A   Overcast
10:58 AM 24.3 °F 11.7 °F 24.3 °F 100% 30.04 in 10.0 mi North 15.0 mph - N/A   Overcast
11:03 AM 24.8 °F 14.6 °F 24.8 °F 100% 29.97 in 10.0 mi North 10.4 mph - N/A   Overcast
11:23 AM 24.8 °F 16.1 °F 24.8 °F 100% 29.99 in 10.0 mi North 8.1 mph - N/A   Overcast
11:58 AM 26.1 °F 16.2 °F 26.1 °F 100% 30.04 in 10.0 mi NNE 10.4 mph - N/A   Mostly Cloudy
12:58 PM 27.3 °F 16.6 °F 27.3 °F 100% 30.04 in 10.0 mi North 12.7 mph - N/A   Overcast
1:23 PM 28.4 °F 18.0 °F 28.4 °F 100% 29.98 in 10.0 mi NNE 12.7 mph - N/A   Mostly Cloudy
1:58 PM 28.0 °F 18.1 °F 28.0 °F 100% 30.03 in 10.0 mi NNE 11.5 mph - N/A   Partly Cloudy
2:18 PM 28.4 °F 18.0 °F 28.4 °F 100% 29.97 in 10.0 mi NNE 12.7 mph - N/A   Mostly Cloudy
2:28 PM 28.4 °F 18.0 °F 28.4 °F 100% 29.97 in 10.0 mi NNE 12.7 mph - N/A   Scattered Clouds
2:33 PM 28.4 °F 18.0 °F 28.4 °F 100% 29.97 in 10.0 mi NNE 12.7 mph - N/A   Mostly Cloudy
2:58 PM 27.7 °F 16.1 °F 27.7 °F 100% 30.03 in 10.0 mi NNE 15.0 mph - N/A   Mostly Cloudy
3:13 PM 28.4 °F 16.6 °F 28.4 °F 100% 29.99 in 10.0 mi North 16.1 mph - N/A   Mostly Cloudy
3:58 PM 27.9 °F 17.3 °F 27.9 °F 100% 30.08 in 10.0 mi North 12.7 mph - N/A   Overcast
4:58 PM 27.5 °F 15.9 °F 27.3 °F 99% 30.11 in 10.0 mi NNE 15.0 mph - N/A   Overcast
5:33 PM 26.6 °F 15.7 °F 26.6 °F 100% 30.07 in 10.0 mi NNE 12.7 mph - N/A   Overcast
5:58 PM 27.0 °F 13.9 °F 26.8 °F 99% 30.13 in 10.0 mi NNE 18.4 mph - N/A   Overcast
6:48 PM 26.6 °F 14.7 °F 26.6 °F 100% 30.12 in 10.0 mi North 15.0 mph - N/A   Mostly Cloudy
6:53 PM 26.6 °F 14.3 °F 26.6 °F 100% 30.12 in 10.0 mi North 16.1 mph - N/A   Mostly Cloudy
6:58 PM 26.8 °F 14.9 °F 26.6 °F 99% 30.18 in 10.0 mi North 15.0 mph - N/A   Mostly Cloudy
7:58 PM 26.8 °F 14.9 °F 26.6 °F 99% 30.21 in 10.0 mi NNE 15.0 mph - N/A   Overcast
8:43 PM 26.6 °F 14.3 °F 24.8 °F 93% 30.18 in 10.0 mi North 16.1 mph 28.8 mph N/A   Overcast
8:58 PM 26.1 °F 14.0 °F 25.2 °F 96% 30.25 in 10.0 mi North 15.0 mph - N/A   Overcast
9:08 PM 24.8 °F 11.9 °F 24.8 °F 100% 30.20 in 10.0 mi North 16.1 mph 26.5 mph N/A   Overcast
9:38 PM 24.8 °F 11.5 °F 23.0 °F 93% 30.20 in 10.0 mi NNE 17.3 mph - N/A   Overcast
9:58 PM 24.3 °F 9.3 °F 22.5 °F 93% 30.26 in 10.0 mi North 21.9 mph 24.2 mph N/A   Overcast
10:13 PM 23.0 °F 8.0 °F 21.2 °F 93% 30.20 in 10.0 mi North 20.7 mph - N/A   Overcast
10:58 PM 22.5 °F 8.5 °F 20.3 °F 91% 30.27 in 10.0 mi NNE 17.3 mph - N/A   Mostly Cloudy
11:58 PM 20.7 °F 7.1 °F 18.7 °F 92% 30.30 in 10.0 mi NNE 15.0 mph - N/A   Clear